Regional Weather Roundup
Issued by NWS Upton, NY

Current Version | Previous Version | Text Only | Print | Product List | Glossary On
Versions: 1 2 3 4 5 6 7 8 9 10 11 12 13 14 15 16 17 18 19 20 21 22 23 24 25 26 27 28 29 30 31 32 33 34 35 36 37 38 39 40 41 42 43 44 45 46 47 48 49 50
000 ASUS41 KOKX 011305 RWROKX REGIONAL WEATHER ROUNDUP NATIONAL WEATHER SERVICE NEW YORK NY 900 AM EDT WED OCT 01 2014 NOTE: "FAIR" INDICATES FEW OR NO CLOUDS BELOW 12,000 FEET WITH NO SIGNIFICANT WEATHER AND/OR OBSTRUCTIONS TO VISIBILITY. NYZ071-072-176-178-NJZ106-104-011400- NEW YORK CITY METRO AREA CITY SKY/WX TMP DP RH WIND PRES REMARKS CENTRAL PARK CLOUDY 61 57 87 NE6 30.05S LAGUARDIA APRT LGT RAIN 62 58 86 NE9 30.02S KENNEDY INTL CLOUDY 62 58 86 N12 30.02S NEWARK/LIBERTY CLOUDY 62 58 86 N12 30.03R BRNX BOT. GARD N/A 59 57 94 N5 30.05R TETERBORO LGT RAIN 62 57 83 N6 30.02R $$ NYZ177-179-078>081-011400- LONG ISLAND NEW YORK CITY SKY/WX TMP DP RH WIND PRES REMARKS FARMINGDALE CLOUDY 62 59 90 NE8 30.02R ISLIP CLOUDY 61 59 93 NE9 30.00R SHIRLEY CLOUDY 61 59 93 VRB3 30.02R WESTHAMPTON CLOUDY 60 58 92 N10 30.02R MONTAUK POINT N/A 60 58 92 N12 30.02S $$ NYZ052-065-067-011400- HUDSON VALLEY CITY SKY/WX TMP DP RH WIND PRES REMARKS WHITE PLAINS CLOUDY 60 57 89 N6 30.03R FOG NEWBURGH CLOUDY 59 57 94 E6 30.07R MONTGOMERY CLOUDY 59 56 89 N6 30.06R POUGHKEEPSIE LGT RAIN 60 57 89 N5 30.05R FOG ALBANY CLOUDY 61 57 87 N3 30.08R $$ NJZ001-105-106-008-010-013-015-019>022-104-011400- NEW JERSEY CITY SKY/WX TMP DP RH WIND PRES REMARKS NEWARK/LIBERTY CLOUDY 62 58 86 N12 30.03R TETERBORO LGT RAIN 62 57 83 N6 30.02R CALDWELL CLOUDY 60 55 83 N3 30.04S MORRISTOWN CLOUDY 63 57 82 NE6 30.04R SOMERVILLE PTSUNNY 64 57 78 NE3 30.02R LINDEN CLOUDY 66 60 79 NE7 30.04S SUSSEX CLOUDY 63 55 75 NE7 30.05R ANDOVER N/A 60 56 86 NE8 30.05R TRENTON MOSUNNY 62 55 77 NE7 30.02R MILLVILLE CLOUDY 64 59 83 NE12 30.01R ATLANTIC CITY CLOUDY 63 61 93 NE10 30.00R WRIGHTSTOWN CLOUDY 62 60 93 N8 30.00R TOMS RIVER CLOUDY 61 59 94 CALM 30.02R BELMAR CLOUDY 61 55 82 N6 30.02R $$ PAZ047>061-062-071-011400- EASTERN PENNSYLVANIA CITY SKY/WX TMP DP RH WIND PRES REMARKS PHILADELPHIA PTSUNNY 66 58 75 NE8 30.02R ALLENTOWN MOSUNNY 62 56 80 NE6 30.05R SCRANTON CLOUDY 62 55 77 CALM 30.05R $$ CTZ002-004>006-009-010-012-RIZ004-006-007-MAZ004-011-015-011400- SOUTHERN NEW ENGLAND IN CT CITY SKY/WX TMP DP RH WIND PRES REMARKS BRADLEY INTL RAIN 59 56 89 N8 30.05R FOG HARTFORD HVY RAIN 58 56 93 N9 30.06R FOG DANBURY LGT RAIN 59 56 89 NE5 30.06R WTRBRY/OXFORD LGT RAIN 57 52 82 NE12 30.06R FOG BRIDGEPORT CLOUDY 60 58 92 N10 30.02S MERIDEN RAIN 58 56 93 N9 30.04S FOG NEW HAVEN CLOUDY 62 57 83 N12 30.03R CHESTER HVY RAIN 57 55 94 N7 30.03S GROTON CLOUDY 58 57 97 N12 30.02R WILLIMANTIC LGT RAIN 58 56 93 N7 30.05R IN RI CITY SKY/WX TMP DP RH WIND PRES REMARKS PROVIDENCE LGT RAIN 58 56 93 N10 30.04R FOG BLOCK ISLAND CLOUDY 59 55 88 N12G17 30.01R WESTERLY CLOUDY 58 57 97 N9 30.03R IN MA CITY SKY/WX TMP DP RH WIND PRES REMARKS BOSTON CLOUDY 57 56 96 N16 30.06R FOG WORCESTER LGT RAIN 54 53 97 NE9 30.07R VSB 1/4 WESTFIELD LGT RAIN 59 56 89 N8 30.07R PROVINCETOWN CLOUDY 61 59 94 NE14 30.03R NANTUCKET CLOUDY 63 61 93 NE14 29.96S $$ ANZ330-335-338-340-345-350-353-355-011400- COASTAL MARINE OBSERVATIONS STATION/POSITION TIME SKY/WX TEMP WIND PRES VSBY WAVE AIR SEA DIR/SP/G HT/PER (UTC) (F) (DEG/KT/KT) (MB) (MI) (FT/S) NY HARB ENTRANCE NOT AVBL 4S FIRE IS 1300 68 N/A 3/ 6 20S FIRE ISLAND 1300 63 67 40/ 16/ 19 1015.3 4/ 6 23SW MTP 1300 N/A 4/ 6 HUDSON CANYON 1300 66 70 20/ 19/ 23 1013.6 5/ 6 EXECUTION ROCKS 1300 62 68 40/ 12/ 16 N/A WESTERN LI SOUND 1300 62 40/ 12/ 14 N/A 1/ 4 CENTRAL LI SOUND 1200 60 68 20/ 16/ 19 N/A 2/ 4 EASTERN LI SOUND 1200 60 67 10/ 12/ 16 N/A ROBBINS REEF 1300 62 10/ 12/ 13 1015.4 $$ >>>>>>>>>>>>>>>>>>>>>>>>>>>> KEY <<<<<<<<<<<<<<<<<<<<<<<<<<< > < > SKY/WX - SKY CONDITION/PRESENT WEATHER < > TMP - TEMPERATURE IN FAHRENHEIT < > DP - DEWPOINT IN FAHRENHEIT < > RH - RELATIVE HUMIDITY IN PERCENT < > WIND - DIRECTION AND SPEED IN MPH < > PRES - MEAN SEA LEVEL PRESSURE IN INCHES OF HG < > WCI - WIND CHILL INDEX < > VSB - VISIBILITY IN MILES < > HX - HEAT INDEX < > TC - TEMPERATURE IN CELSIUS < > VRB - VARIABLE WIND DIRECTION < > < >>>>>>>>>>>>>>>>>>>>>>>>>>>> KEY <<<<<<<<<<<<<<<<<<<<<<<<<<<

USA.gov is the U.S. government's official web portal to all federal, state and local government web resources and services.